Tracking 28126 objects as of 2-Oct-2023
HD Live streaming from Space Station
objects crossing your sky now

STARLINK-4600

Track STARLINK-4600 now!
10-day predictions
STARLINK-4600 is classified as:


NORAD ID: 53628
Int'l Code: 2022-104AS
Perigee: 545.7 km
Apogee: 548.1 km
Inclination: 53.2 °
Period: 95.4 minutes
Semi major axis: 6917 km
RCS: Unknown
Launch date: August 28, 2022
Source: United States (US)
Launch site: AIR FORCE EASTERN TEST RANGE (AFETR)
Your satellite tracking list
Your tracking list is empty




NASA's NSSDC Master Catalog

Two Line Element Set (TLE):
1 53628U 22104AS  23274.70429425  .00000001  00000-0  18150-4 0  9994
2 53628  53.2153 268.9850 0001720  91.9334 268.1855 15.08837871 61406
Source of the keplerian elements: AFSPC